Regional Weather Roundup
Issued by NWS

Home | Current Version | Previous Version | Text Only | Print | Product List | Glossary Off
Versions: 1 2 3 4 5 6 7 8 9 10 11 12 13 14 15 16 17 18 19 20 21 22 23 24 25 26 27 28 29 30 31 32 33 34 35 36 37 38 39 40 41 42 43 44 45 46 47 48 49 50

000
ASUS43 KIND 250759
RWRIN

WEATHER ROUNDUP FOR INDIANA
NATIONAL WEATHER SERVICE INDIANAPOLIS IN
400 AM EDT FRI MAY 25 2018

NOTE: "FAIR" INDICATES FEW OR NO CLOUDS BELOW 12,000 FEET WITH NO
SIGNIFICANT WEATHER AND/OR OBSTRUCTIONS TO VISIBILITY.

* - STATION DOES NOT REPORT WEATHER SUCH AS PRECIPITATION OR FOG.

+ - STATION NOT QUALITY CONTROLLED BY THE NATIONAL WEATHER SERVICE.
    USE DATA WITH CAUTION...ESPECIALLY DEWPOINT AND RELATIVE
    HUMIDITY OBSERVATIONS.

INZ001>003-010>013-019-020-250900-
NORTHWEST INDIANA

CITY           SKY/WX    TMP DP  RH WIND       PRES   REMARKS
KNOX *+        FAIR      61  52  72 CALM      30.02S
MICHIGAN CITY+ FAIR      63  46  55 CALM      30.02F
MONTICELLO +   FAIR      57  50  78 CALM      30.03S

$$

LMZ046-743>745-250900-
SOUTHERN LAKE MICHIGAN

STATION/POSITION TIME  TEMP    WIND        PRES    WAVE
                       AIR SEA DIR/SP/G            HT
                 (UTC) (F)     (DEG/KT/KT) (MB)    (FT)
BURNS HARBOR     0740   69     190/  9/ 11 1016.6F
MICHIGAN CITY    0730   71     150/ 10/ 13   N/A
5NW MICH CITY    0750   63 60  200/  6/  6   N/A     0

$$

INZ004-005-014>016-021>024-250900-
NORTH CENTRAL INDIANA

CITY           SKY/WX    TMP DP  RH WIND       PRES   REMARKS
GOSHEN         FAIR      58  54  86 S3        30.03F
PERU/GRISSOM   FAIR      60  53  76 CALM      30.03F
SOUTH BEND     FAIR      60  51  72 CALM      30.03F
WARSAW +       FAIR      54  52  94 CALM      30.04F

$$

INZ006>009-017-018-025>027-250900-
NORTHEAST INDIANA

CITY           SKY/WX    TMP DP  RH WIND       PRES   REMARKS
ANGOLA *+      FAIR      55  54  94 CALM      30.05S
AUBURN +       FAIR      54  50  87 CALM      30.06S
FORT WAYNE     FAIR      58  52  80 CALM      30.05F
KENDALLVILLE + FAIR     N/A N/A N/A S3        30.05F

$$

INZ028-029-035-036-043>045-051>053-250900-
WEST CENTRAL INDIANA

CITY           SKY/WX    TMP DP  RH WIND       PRES   REMARKS
CRAWFORDSVL +  FAIR      57  54  89 CALM      30.04F
GREENCASTLE +  FAIR      57  52  82 CALM      30.05F
LAFAYETTE      FAIR      55  53  93 CALM      30.03S
TERRE HAUTE    FAIR      58  55  90 CALM      30.03F

$$

INZ030>032-037>040-046>048-054>057-064-065-250900-
CENTRAL INDIANA

CITY           SKY/WX    TMP DP  RH WIND       PRES   REMARKS
ANDERSON       FAIR      57  53  86 CALM      30.06F
FRANKFORT +    FAIR      61  53  73 CALM      30.06S
GREENWOOD *+   FAIR      62  55  80 CALM      30.05F
INDIANAPOLIS   FAIR      67  54  63 CALM      30.04F
-EAGLE CREEK   FAIR      61  57  87 CALM      30.04F
KOKOMO +       FAIR      60  52  74 S5        30.05F
MT COMFORT *+  FAIR      57  55  94 CALM      30.05F
SHELBYVILLE    FAIR      60  55  83 E3        30.04F

$$

INZ033-034-041-042-049-050-058-059-250900-
EAST CENTRAL INDIANA

CITY           SKY/WX    TMP DP  RH WIND       PRES   REMARKS
MUNCIE         FAIR      59  53  80 CALM      30.05F
RICHMOND +     FAIR      59  54  82 CALM      30.07F

$$

INZ060-061-067>069-081>083-085>088-250900-
SOUTHWEST INDIANA

CITY           SKY/WX    TMP DP  RH WIND       PRES   REMARKS
EVANSVILLE     FAIR      64  61  90 CALM      30.03F
HUNTINGBURG +  FAIR      60  58  92 CALM      30.04F

$$

INZ062-063-066-070>080-084-089>092-250900-
SOUTH CENTRAL AND SOUTHEAST INDIANA

CITY           SKY/WX    TMP DP  RH WIND       PRES   REMARKS
BLOOMINGTON    FAIR      58  56  93 CALM      30.04F
FRENCH LICK *+ FAIR      63  48  59 CALM      30.05F
SEYMOUR +      FAIR      61  59  94 CALM      30.04F

$$





USA.gov is the U.S. government's official web portal to all federal, state and local government web resources and services.